Douglas Bisbee, AZ

10:10 AM MST on March 30, 2017 (GMT -0700)
Bisbee Douglas International

Weather History for KDUG - March, 2013

Change the Weather History Date:

Wednesday, March 27, 2013

  Actual Average Record
Temperature  
Mean Temperature 61 °F 56 °F  
Max Temperature 79 °F 74 °F 87 °F (1988)
Min Temperature 43 °F 39 °F 27 °F (2005)
Degree Days  
Heating Degree Days 4 9  
Month to date heating degree days 226 293  
Since 1 July heating degree days 2430 2329  
Cooling Degree Days 0 0  
Month to date cooling degree days 2 0  
Year to date cooling degree days 2 0  
Growing Degree Days 12 (Base 50)    
Moisture  
Dew Point 15 °F    
Average Humidity 18    
Maximum Humidity 28    
Minimum Humidity 7    
Precipitation  
Precipitation 0.00 in 0.01 in 0.29 in (1992)
Month to date precipitation 0.02 0.46  
Year to date precipitation 0.86 1.85  
Snow  
Snow 0.00 in - - ()
Month to date snowfall 0.0  
Snow Depth 0.00 in    
Sea Level Pressure  
Sea Level Pressure 29.91 in    
Wind  
Wind Speed 8 mph (South)    
Max Wind Speed 25 mph    
Max Gust Speed 30 mph    
Visibility 10 miles    
Events      
T = Trace of Precipitation, MM = Missing Value Source: NWS Daily Summary

Daily Weather History Graph

Daily Weather History Graph

Search for Another Location

Airport or City:

Trip Planner

Search our weather history database for the weather conditions in past years. The results will help you decide how hot, cold, wet, or windy it might be!

Date:

Astronomy

Mar. 27, 2013 Rise Set
Actual Time 6:12 AM MST 6:34 PM MST
Civil Twilight 5:48 AM MST 6:59 PM MST
Nautical Twilight 5:20 AM MST 7:27 PM MST
Astronomical Twilight 4:51 AM MST 7:56 PM MST
Moon 7:16 PM MST (3/27) 6:09 AM MST (3/27)
Length of Visible Light 13h 10m
Length of Day
12h 21m
Full, 100% of the Moon is Illuminated
Mar 27
Full
Apr 2
Last Quarter
Apr 10
New
Apr 18
First Quarter
Apr 25
Full

Hourly Weather History & Observations

Time (MST) Temp. Dew Point Humidity Pressure Visibility Wind Dir Wind Speed Gust Speed Precip Events Conditions
12:56 AM 54.0 °F 12.0 °F 19% 29.87 in 10.0 mi East 5.8 mph - N/A   Clear
1:56 AM 53.1 °F 12.9 °F 20% 29.86 in 10.0 mi East 5.8 mph - N/A   Clear
2:56 AM 48.0 °F 12.0 °F 24% 29.86 in 10.0 mi East 5.8 mph - N/A   Clear
3:56 AM 46.0 °F 10.9 °F 24% 29.88 in 10.0 mi Calm Calm - N/A   Clear
4:56 AM 46.9 °F 15.1 °F 28% 29.88 in 10.0 mi East 6.9 mph - N/A   Clear
5:56 AM 48.0 °F 15.1 °F 27% 29.90 in 10.0 mi East 4.6 mph - N/A   Clear
6:56 AM 50.0 °F 15.1 °F 25% 29.93 in 10.0 mi ESE 3.5 mph - N/A   Clear
7:56 AM 52.0 °F 16.0 °F 24% 29.96 in 10.0 mi SE 3.5 mph - N/A   Clear
8:56 AM 64.9 °F 17.1 °F 16% 29.95 in 10.0 mi SSE 11.5 mph - N/A   Clear
9:56 AM 71.1 °F 18.0 °F 13% 29.94 in 10.0 mi South 15.0 mph - N/A   Clear
10:56 AM 73.0 °F 18.0 °F 12% 29.93 in 10.0 mi South 18.4 mph 24.2 mph N/A   Clear
11:56 AM 75.9 °F 10.0 °F 8% 29.91 in 10.0 mi South 13.8 mph 24.2 mph N/A   Clear
12:20 PM 75.2 °F 5.0 °F 7% 30.06 in 10.0 mi WSW 23.0 mph 29.9 mph N/A   Clear
12:56 PM 75.9 °F 9.0 °F 8% 29.90 in 10.0 mi WSW 19.6 mph 25.3 mph N/A   Clear
1:56 PM 77.0 °F 8.1 °F 7% 29.88 in 10.0 mi WSW 8.1 mph 24.2 mph N/A   Clear
2:56 PM 75.9 °F 12.9 °F 9% 29.87 in 10.0 mi WSW 9.2 mph 21.9 mph N/A   Clear
3:56 PM 77.0 °F 16.0 °F 10% 29.86 in 10.0 mi SW 13.8 mph 24.2 mph N/A   Clear
4:56 PM 75.0 °F 16.0 °F 11% 29.87 in 10.0 mi WSW 16.1 mph - N/A   Clear
5:56 PM 73.9 °F 19.0 °F 13% 29.88 in 10.0 mi West 9.2 mph - N/A   Clear
6:56 PM 68.0 °F 21.0 °F 17% 29.90 in 10.0 mi West 8.1 mph - N/A   Clear
7:56 PM 64.9 °F 19.9 °F 18% 29.92 in 10.0 mi West 5.8 mph - N/A   Clear
8:56 PM 59.0 °F 19.0 °F 21% 29.93 in 10.0 mi Calm Calm - N/A   Clear
9:56 PM 59.0 °F 19.9 °F 22% 29.94 in 10.0 mi SE 4.6 mph - N/A   Clear
10:56 PM 61.0 °F 23.0 °F 23% 29.94 in 10.0 mi SW 5.8 mph - N/A   Clear
11:56 PM 57.0 °F 23.0 °F 27% 29.94 in 10.0 mi South 3.5 mph - N/A   Clear